• MPC Preparation (Info)

  • MPEC 2016-O129: 2014 DN143

    The following Minor Planet Electronic Circular may be linked-to from your own Web pages, but must not otherwise be redistributed electronically.

    A form allowing access to any MPEC is at the bottom of this page.


    Read MPEC 2016-O128 Read MPEC 2016-O130


    M.P.E.C. 2016-O129                               Issued 2016 July 17, 07:21 UT
    
         The Minor Planet Electronic Circulars contain information on unusual
             minor planets and routine data on comets.  They are published
        on behalf of Division F of the International Astronomical Union by the
              Minor Planet Center, Smithsonian Astrophysical Observatory,
                              Cambridge, MA 02138, U.S.A.
    
                 Prepared using the Tamkin Foundation Computer Network
    
                                  MPC@CFA.HARVARD.EDU
                URL https://www.minorplanetcenter.net/    ISSN 1523-6714
    
                                      2014 DN143
    
    Observations:
         K14DE3N  C2013 03 06.41168 11 19 28.488-01 11 32.16         22.0 wLEO129F51
         K14DE3N  C2013 03 06.42629 11 19 28.443-01 11 31.37         21.9 wLEO129F51
         K14DE3N  C2013 03 06.44090 11 19 28.373-01 11 31.27         22.0 wLEO129F51
         K14DE3N  C2013 03 06.45553 11 19 28.302-01 11 30.79         21.9 wLEO129F51
         K14DE3N  C2013 04 05.32848 11 17 30.580-00 58 51.84         21.9 wLEO129F51
         K14DE3N  C2013 04 05.34287 11 17 30.508-00 58 51.42         22.0 wLEO129F51
         K14DE3N  C2013 04 05.35723 11 17 30.463-00 58 51.28         21.9 wLEO129F51
         K14DE3N* C2014 02 28.45321 11 23 56.504-01 45 50.97         21.8 wLEO129F51
         K14DE3N  C2014 02 28.46528 11 23 56.453-01 45 50.71         21.8 wLEO129F51
         K14DE3N  C2014 02 28.47735 11 23 56.405-01 45 50.31         22.0 wLEO129F51
         K14DE3N  C2014 02 28.48943 11 23 56.357-01 45 50.26         21.9 wLEO129F51
         K14DE3N  C2014 03 24.39929 11 22 19.228-01 35 52.95         21.9 wLEO129F51
         K14DE3N  C2014 03 24.41159 11 22 19.185-01 35 52.75         21.9 wLEO129F51
         K14DE3N  C2014 03 24.42387 11 22 19.133-01 35 52.31         21.8 wLEO129F51
         K14DE3N  C2014 03 24.43617 11 22 19.086-01 35 52.09         22.0 wLEO129F51
         K14DE3N  C2014 05 24.26147 11 19 40.460-01 15 08.18         22.0 wLEO129F51
         K14DE3N  C2014 05 24.26213 11 19 40.448-01 15 08.21         22.0 wLEO129F51
         K14DE3N  C2014 05 24.27473 11 19 40.440-01 15 08.03         22.1 wLEO129F51
         K14DE3N  C2014 05 24.27541 11 19 40.464-01 15 08.09         22.1 wLEO129F51
         K14DE3N  C2014 05 24.28801 11 19 40.449-01 15 07.92         21.9 wLEO129F51
         K14DE3N  C2014 05 24.28867 11 19 40.442-01 15 07.78         22.1 wLEO129F51
         K14DE3N  C2014 05 24.30130 11 19 40.436-01 15 07.72         22.0 wLEO129F51
         K14DE3N  C2014 05 24.30196 11 19 40.429-01 15 07.75         21.9 wLEO129F51
         K14DE3N  C2014 06 20.26858 11 19 50.086-01 13 22.56         22.2 wLEO129F51
         K14DE3N  C2014 06 20.27385 11 19 50.105-01 13 22.74         22.0 wLEO129F51
         K14DE3N  C2014 06 20.27913 11 19 50.110-01 13 22.47         22.0 wLEO129F51
         K14DE3N  C2014 11 29.60744 11 30 23.357-02 22 43.01         21.9 wLEO129F51
         K14DE3N  C2014 11 29.61206 11 30 23.373-02 22 42.98         21.9 wLEO129F51
         K14DE3N  C2014 11 29.61669 11 30 23.380-02 22 43.13         22.2 wLEO129F51
         K14DE3N  C2014 11 29.62133 11 30 23.358-02 22 43.25         22.1 wLEO129F51
         K14DE3N  C2015 01 23.49179 11 30 02.280-02 27 49.42         21.9 wLEO129F51
         K14DE3N  C2015 01 23.50325 11 30 02.251-02 27 49.33         22.1 wLEO129F51
         K14DE3N  C2015 01 23.51471 11 30 02.227-02 27 49.13         22.3 wLEO129F51
         K14DE3N  C2015 01 23.52622 11 30 02.194-02 27 49.21         21.8 wLEO129F51
         K14DE3N  C2015 01 25.48404 11 29 57.267-02 27 30.69         21.8 wLEO129F51
         K14DE3N  C2015 01 25.49542 11 29 57.246-02 27 30.60         22.1 wLEO129F51
         K14DE3N  C2015 01 25.50676 11 29 57.195-02 27 30.55         22.1 wLEO129F51
         K14DE3N  C2015 01 25.51816 11 29 57.182-02 27 30.30         21.9 wLEO129F51
         K14DE3N  C2015 02 24.44593 11 28 17.152-02 19 21.56         22.1 wLEO129F51
         K14DE3N  C2015 02 24.46017 11 28 17.107-02 19 21.31         22.1 wLEO129F51
         K14DE3N  C2015 02 24.47447 11 28 17.035-02 19 21.01         21.8 wLEO129F51
         K14DE3N  C2015 02 24.48875 11 28 16.992-02 19 20.64         21.8 wLEO129F51
         K14DE3N  C2015 02 25.46662 11 28 13.145-02 18 59.25         21.8 wLEO129F51
         K14DE3N  C2015 02 25.48057 11 28 13.098-02 18 58.77         21.8 wLEO129F51
         K14DE3N  C2015 02 25.49451 11 28 13.044-02 18 58.59         22.0 wLEO129F51
         K14DE3N  C2015 02 25.50842 11 28 12.989-02 18 58.46         21.7 wLEO129F51
    
    Observer details:
    F51 Pan-STARRS 1, Haleakala.  Observers B. Gibson, T. Goggia, N. Primak,
        A. Schultz, M. Willman.  Measurers K. Chambers, S. Chastel, Y.-T. Chen,
        L. Denneau, H. Flewelling, M. Holman, M. Huber, R. Jedicke, M. Lackner,
        E. Lilly, H.-W. Lin, E. Magnier, M. Micheli, M. Payne, P. Veres,
        R. Wainscoat, C. Waters, R. Weryk.  1.8-m Ritchey-Chretien + CCD.
    
    Orbital elements:
    2014 DN143
    Epoch 2016 July 31.0 TT = JDT 2457600.5                 MPC
    M 285.11636              (2000.0)            P               Q
    n   0.00301525     Peri.  314.18971     -0.20766131     +0.97325499
    a  47.4518995      Node   303.58072     -0.86048866     -0.22951331
    e   0.0693077      Incl.    6.77221     -0.46522688     -0.00991732
    P 327              H    5.1           G   0.15           U   2
    Residuals in seconds of arc
    130306 F51  0.1-  0.1-    140524 F51  0.2-  0.0     150123 F51  0.1-  0.1+
    130306 F51  0.2+  0.3+    140524 F51  0.2-  0.1+    150123 F51  0.2-  0.1-
    130306 F51  0.0   0.1+    140524 F51  0.2+  0.0     150125 F51  0.1-  0.1+
    130306 F51  0.1-  0.2+    140524 F51  0.1+  0.0     150125 F51  0.0   0.0
    130405 F51  0.2+  0.1-    140524 F51  0.0   0.2+    150125 F51  0.3-  0.0
    130405 F51  0.1-  0.1-    140524 F51  0.0   0.1+    150125 F51  0.0   0.1+
    130405 F51  0.0   0.3-    140524 F51  0.1-  0.1+    150224 F51  0.1+  0.0
    140228 F51  0.1+  0.2-    140620 F51  0.1-  0.2+    150224 F51  0.3+  0.1-
    140228 F51  0.1+  0.2-    140620 F51  0.1+  0.0     150224 F51  0.0   0.1-
    140228 F51  0.1+  0.1-    140620 F51  0.1+  0.3+    150224 F51  0.3+  0.0
    140228 F51  0.1+  0.3-    141129 F51  0.1-  0.1-    150225 F51  0.1+  0.1-
    140324 F51  0.1-  0.0     141129 F51  0.1+  0.0     150225 F51  0.2+  0.1+
    140324 F51  0.0   0.1-    141129 F51  0.0   0.0     150225 F51  0.2+  0.0
    140324 F51  0.0   0.0     141129 F51  0.4-  0.1-    150225 F51  0.3+  0.2-
    140324 F51  0.0   0.1-    150123 F51  0.2-  0.0
    140524 F51  0.1-  0.0     150123 F51  0.2-  0.0
    
    Ephemeris:
    2014 DN143               a,e,i = 47.45, 0.07, 7                  q = 44.163
    Date    TT    R. A. (2000) Decl.     Delta      r     Elong.  Phase     V
    2016 06 17    11 27 43.7 -02 15 51  46.8532 46.8195    87.5     1.2    22.0
    ...
    2016 07 02    11 28 07.4 -02 16 47  47.0984 46.8169    73.3     1.2    22.0
    ...
    2016 07 10    11 28 26.6 -02 18 04  47.2228 46.8156    65.8     1.1    22.0
    ...
    2016 07 16    11 28 43.9 -02 19 22  47.3113 46.8145    60.2     1.1    22.0
    2016 07 17    11 28 47.0 -02 19 36  47.3255 46.8144    59.3     1.1    22.0
    2016 07 18    11 28 50.2 -02 19 52  47.3397 46.8142    58.3     1.1    22.0
    ...
    2016 07 24    11 29 10.4 -02 21 32  47.4213 46.8132    52.7     1.0    22.0
    ...
    2016 08 01    11 29 40.6 -02 24 10  47.5205 46.8118    45.3     0.9    22.0
    ...
    2016 08 16    11 30 45.4 -02 30 16  47.6711 46.8092    31.3     0.6    22.0
    
    A. U. Tomatic                (C) Copyright 2016 MPC           M.P.E.C. 2016-O129
    

    Read MPEC 2016-O128 Read MPEC 2016-O130


    MPEC number:

    Enter an MPEC number in one of the following forms:

    • 1997-B01 (the full form)
    • J97B01 (the packed version of the full form)
    • B01 (the abbreviated form)